Regional Weather Roundup
Issued by NWS Little Rock, AR

Home | Current Version | Previous Version | Graphics & Text | Print | Product List | Glossary On
Versions: 1 2 3 4 5 6 7 8 9 10 11 12 13 14 15 16 17 18 19 20 21 22 23 24 25 26 27 28 29 30 31 32 33 34 35 36 37 38 39 40 41 42 43 44 45 46 47 48 49 50
000
ASUS44 KLZK 240105
RWRLZK

WEATHER ROUNDUP FOR ARKANSAS
NATIONAL WEATHER SERVICE LITTLE ROCK AR
800 PM CDT FRI JUN 23 2017

NOTE: "FAIR" INDICATES FEW OR NO CLOUDS BELOW 12,000 FEET WITH NO
SIGNIFICANT WEATHER AND/OR OBSTRUCTIONS TO VISIBILITY.

ARZ001-003-010-029-240200-
NORTHWEST ARKANSAS

CITY           SKY/WX    TMP DP  RH WIND       PRES   REMARKS
FAYETTEVILLE   MOCLDY    76  66  71 NE5       29.97R
FORT SMITH     CLOUDY    79  71  76 E8        29.92R
HARRISON       CLOUDY    72  67  84 NW3       29.97R
BENTONVILLE    PTCLDY    77  61  57 NE7       29.99R
ROGERS         CLOUDY    75  62  64 N6        29.99R
SILOAM SPGS    CLOUDY    77  59  53 NE3       29.97R
HIGHFILL       PTCLDY    78  60  53 N12       29.98R
SPRINGDALE     CLEAR     77  61  57 NE8       29.99R
$$

ARZ004-005-016-240200-
NORTH CENTRAL ARKANSAS

CITY           SKY/WX    TMP DP  RH WIND       PRES   REMARKS
BATESVILLE     CLOUDY    70  68  94 W6        29.91R
FLIPPIN        CLOUDY    72  64  78 NW6       29.91R
MTN HOME       CLOUDY    71  70  96 CALM      29.93R
$$

ARZ040-041-240200-
WEST CENTRAL ARKANSAS

CITY           SKY/WX    TMP DP  RH WIND       PRES   REMARKS
MENA           CLOUDY    81  79  94 E5        29.92R HX  89
MOUNT IDA      CLOUDY    72  70  93 CALM      29.90R
$$

ARZ009-017-025-026-028-240200-
NORTHEAST ARKANSAS

CITY           SKY/WX    TMP DP  RH WIND       PRES   REMARKS
CORNING        FAIR      75  75 100 NW8       29.87R
JONESBORO      CLOUDY    74  72  93 W6        29.87R
WALNUT RIDGE   CLOUDY    73  68  83 W10       29.88R
BLYTHEVILLE    MOCLDY    75  74  96 NW15      29.85R
$$

ARZ022-023-033-042-044-240200-
CENTRAL ARKANSAS

CITY           SKY/WX    TMP DP  RH WIND       PRES   REMARKS
LITTLE ROCK    LGT RAIN  70  70 100 S7        29.90F
N LITTLE ROCK    N/A     70  69  95 CALM      29.91R
JACKSONVILLE   LGT RAIN  71  71  99 S3        29.89F
CONWAY           N/A     72  70  94 CALM      29.88F
SEARCY         CLOUDY    70  70 100 N3        29.91R
HOT SPRINGS    CLOUDY    72  71  97 E5        29.91R
RUSSELLVILLE   CLOUDY    72  69  90 N3        29.90R
CLINTON        FAIR      70  70 100 CALM      29.92S
$$

ARZ036-240200-
EAST ARKANSAS

CITY           SKY/WX    TMP DP  RH WIND       PRES   REMARKS
WEST MEMPHIS   LGT RAIN  73  72  96 SE6       29.82F
$$

ARZ050-053-066-070-073-240200-
SOUTHWEST ARKANSAS

CITY           SKY/WX    TMP DP  RH WIND       PRES   REMARKS
CAMDEN         HVY RAIN  72  66  83 N5        29.95R VSB 1
TEXARKANA      PTCLDY    86  78  77 SE3       29.86R HX  98
EL DORADO      CLEAR     84  80  88 NE5       29.90R HX  97
DE QUEEN       CLOUDY    81  81 100 CALM      29.82R HX  92
$$

ARZ056-057-069-240200-
SOUTHEAST ARKANSAS

CITY           SKY/WX    TMP DP  RH WIND       PRES   REMARKS
PINE BLUFF     LGT RAIN  71  69  93 S6        29.94R
STUTTGART      CLOUDY    73  61  64 W12       29.93R
MONTICELLO     HVY RAIN  71  68  90 VRB3      29.97R FOG

$$





USA.gov is the U.S. government's official web portal to all federal, state and local government web resources and services.